ZL2IH Weather Reports


Display with metric or nautical units.
time (UTC)temp
F
wind
direction
speed
MPH
gust
MPH
rain 1hr
in
rain 24hr
in
rain mn
in
humidity
%
barometer
mb
20260510005018 57 180 1.0 6.0 0.00 0.06 0.01 100 1003.7
20260510004018 56 180 1.0 4.0 0.00 0.06 0.01 100 1003.9
20260510003037 56 180 1.0 4.0 0.00 0.06 0.01 100 1003.9
20260510002017 57 0.0 4.0 0.00 0.06 0.01 100 1003.9
20260510001017 57 0.0 4.0 0.00 0.06 0.01 100 1004.1
20260510000017 58 203 1.0 2.0 0.00 0.06 0.01 100 1004.3
20260509235018 58 180 1.0 4.0 0.00 0.06 0.01 100 1004.3
20260509234017 58 225 1.0 8.0 0.00 0.06 0.01 100 1004.2
20260509233017 58 203 2.0 7.0 0.00 0.06 0.01 100 1004.3
20260509232038 57 203 3.0 14.0 0.00 0.06 0.01 100 1003.9
20260509231017 57 203 3.0 15.0 0.01 0.06 0.01 100 1003.7
20260509230017 57 180 2.0 8.0 0.01 0.07 0.01 100 1003.8
20260509225019 57 180 2.0 7.0 0.01 0.07 0.01 100 1003.6
20260509224017 56 158 2.0 6.0 0.01 0.07 0.01 100 1003.4
20260509223017 56 180 2.0 8.0 0.01 0.07 0.01 100 1003.1
20260509222017 56 203 2.0 6.0 0.01 0.07 0.01 100 1003.3
20260509221017 57 203 1.0 4.0 0.00 0.06 0.00 100 1003.7
20260509220017 56 158 3.0 7.0 0.00 0.06 0.00 100 1003.6
20260509215037 56 180 2.0 8.0 0.00 0.06 0.00 100 1003.6
20260509214017 56 203 2.0 8.0 0.00 0.06 0.00 100 1003.5
20260509213017 56 158 2.0 8.0 0.00 0.06 0.00 100 1003.3
20260509212017 55 180 3.0 10.0 0.00 0.06 0.00 100 1003.3
20260509211017 55 203 2.0 8.0 0.00 0.06 0.00 100 1003.4
20260509210017 54 135 2.0 10.0 0.00 0.06 0.00 100 1003.3
20260509205017 54 158 2.0 8.0 0.00 0.06 0.00 100 1003.2
20260509204018 54 203 2.0 5.0 0.00 0.06 0.00 100 1003.0
20260509203017 54 180 2.0 6.0 0.00 0.06 0.00 100 1003.3
20260509202017 53 203 2.0 10.0 0.00 0.06 0.00 100 1003.1
20260509201017 52 180 2.0 5.0 0.00 0.06 0.00 100 1003.0
20260509200016 52 158 2.0 11.0 0.00 0.06 0.00 100 1003.0
20260509195017 52 135 1.0 5.0 0.00 0.06 0.00 100 1003.0
20260509194037 51 203 1.0 5.0 0.00 0.06 0.00 100 1002.9
20260509193057 51 203 1.0 5.0 0.00 0.07 0.00 100 1002.8
20260509192017 51 135 1.0 5.0 0.00 0.07 0.00 100 1002.6
20260509191017 51 203 1.0 8.0 0.00 0.15 0.00 100 1002.7
20260509190017 51 158 2.0 6.0 0.00 0.20 0.00 100 1002.4
20260509185017 51 203 2.0 8.0 0.00 0.20 0.00 100 1002.3
20260509184016 51 180 1.0 4.0 0.00 0.34 0.00 100 1002.5
20260509183016 51 180 1.0 4.0 0.00 0.46 0.00 100 1002.6
20260509182017 51 135 2.0 7.0 0.00 0.46 0.00 100 1002.4
20260509181017 51 180 2.0 6.0 0.00 0.46 0.00 100 1002.5
20260509180016 51 113 2.0 4.0 0.00 0.46 0.00 100 1002.4
20260509175017 51 225 1.0 8.0 0.00 0.46 0.00 100 1002.4
20260509174016 50 225 1.0 4.0 0.00 0.46 0.00 100 1002.3
20260509173017 50 158 1.0 4.0 0.00 0.46 0.00 100 1002.4
20260509172017 51 0.0 2.0 0.00 0.46 0.00 100 1002.4
20260509171017 51 203 1.0 4.0 0.00 0.46 0.00 100 1002.4
20260509170016 51 158 1.0 4.0 0.00 0.46 0.00 100 1002.2
20260509165016 51 180 1.0 4.0 0.00 0.46 0.00 100 1002.0
20260509164019 51 180 2.0 8.0 0.00 0.46 0.00 100 1002.1
20260509163019 50 203 1.0 8.0 0.00 0.46 0.00 100 1002.3
20260509162019 50 203 1.0 6.0 0.00 0.46 0.00 100 1002.1
20260509161019 50 203 1.0 4.0 0.00 0.46 0.00 100 1002.2
20260509160018 50 158 1.0 3.0 0.00 0.46 0.00 100 1002.4
20260509155018 50 158 1.0 5.0 0.00 0.46 0.00 100 1002.3
20260509154018 50 0.0 3.0 0.00 0.46 0.00 100 1002.2
20260509153018 49 0.0 2.0 0.00 0.46 0.00 100 1002.2
20260509152019 49 248 1.0 3.0 0.00 0.46 0.00 100 1002.3
20260509151019 49 180 1.0 3.0 0.00 0.46 0.00 100 1002.6
20260509150018 49 203 1.0 3.0 0.00 0.46 0.00 100 1002.6
20260509145018 49 180 1.0 4.0 0.00 0.46 0.00 100 1002.6
20260509144058 49 0.0 3.0 0.00 0.46 0.00 100 1002.8
20260509143018 49 0.0 2.0 0.00 0.46 0.00 100 1002.9
20260509142018 49 0.0 2.0 0.00 0.46 0.00 100 1002.9
20260509141018 49 0.0 1.0 0.00 0.46 0.00 100 1003.0
20260509140019 49 0.0 1.0 0.00 0.46 0.00 100 1003.2
20260509135019 49 0.0 3.0 0.00 0.46 0.00 100 1003.2
20260509134058 49 0.0 2.0 0.00 0.46 0.00 100 1003.1
20260509133018 49 0.0 2.0 0.00 0.46 0.00 100 1003.2
20260509132118 49 0.0 3.0 0.00 0.46 0.00 100 1003.3
20260509131018 49 248 1.0 2.0 0.00 0.46 0.00 100 1003.2
20260509130018 48 0.0 2.0 0.00 0.46 0.00 100 1003.0
20260509125018 49 0.0 2.0 0.00 0.46 0.00 100 1003.2
20260509124018 48 0.0 2.0 0.00 0.46 0.00 100 1003.3
20260509123018 48 0.0 4.0 0.00 0.46 0.00 100 1003.2
20260509122038 48 0.0 3.0 0.00 0.46 0.00 100 1003.2
20260509121018 48 0.0 2.0 0.00 0.46 0.00 100 1003.3
20260509120018 48 0.0 1.0 0.00 0.46 0.46 100 1003.5
20260509115018 48 0.0 1.0 0.00 0.46 0.46 100 1003.4
20260509114038 48 0.0 1.0 0.00 0.46 0.46 100 1003.5
20260509113018 48 0.0 2.0 0.00 0.46 0.46 100 1003.6
20260509112018 47 0.0 2.0 0.00 0.46 0.46 100 1003.5
20260509111018 47 0.0 2.0 0.00 0.46 0.46 100 1003.6
20260509110018 47 0.0 1.0 0.00 0.46 0.46 100 1003.7
20260509105159 47 0.0 1.0 0.00 0.46 0.46 100 1003.8
20260509104018 47 0.0 1.0 0.00 0.46 0.46 100 1003.8
20260509103018 47 0.0 1.0 0.00 0.46 0.46 100 1003.8
20260509102018 47 0.0 0.0 0.00 0.46 0.46 100 1003.8
20260509101018 47 0.0 0.0 0.00 0.46 0.46 100 1003.6
20260509100018 47 0.0 0.0 0.00 0.46 0.46 100 1003.7
20260509095018 47 0.0 0.0 0.00 0.46 0.46 100 1003.6
20260509094018 48 0.0 0.0 0.00 0.54 0.46 100 1003.5
20260509093018 48 0.0 0.0 0.00 0.65 0.46 100 1003.4
20260509092138 48 0.0 0.0 0.00 0.72 0.46 100 1003.4
20260509091058 48 0.0 1.0 0.00 0.75 0.46 100 1003.4
20260509090018 48 0.0 1.0 0.00 0.76 0.46 100 1003.3
20260509085018 49 0.0 1.0 0.00 0.76 0.46 100 1003.4
20260509084018 49 0.0 2.0 0.00 0.76 0.46 100 1003.4
20260509083018 49 0.0 1.0 0.00 0.77 0.46 100 1003.4
20260509082058 50 0.0 2.0 0.00 0.85 0.46 100 1003.5
20260509081058 50 135 1.0 3.0 0.00 0.93 0.46 100 1003.4
20260509080018 50 180 1.0 4.0 0.00 0.98 0.46 100 1003.4
20260509074018 50 0.0 2.0 0.00 1.09 0.46 100 1003.3
20260509073018 50 180 1.0 2.0 0.00 1.14 0.46 100 1003.1
20260509072158 50 203 1.0 4.0 0.00 1.14 0.46 100 1003.2
20260509071018 51 0.0 3.0 0.00 1.16 0.46 100 1003.1
20260509070018 51 0.0 5.0 0.00 1.21 0.46 100 1003.2
20260509065018 51 0.0 0.0 0.00 1.28 0.46 100 1003.1
20260509064018 51 0.0 1.0 0.00 1.33 0.46 100 1003.0
20260509063018 52 0.0 2.0 0.00 1.35 0.46 100 1003.0
20260509061018 52 0.0 2.0 0.00 1.37 0.46 100 1003.1
20260509060018 52 0.0 2.0 0.00 1.38 0.46 100 1002.9
20260509055017 52 0.0 2.0 0.00 1.38 0.46 100 1002.8
20260509054059 53 0.0 2.0 0.00 1.38 0.46 100 1002.8
20260509053057 53 0.0 2.0 0.00 1.38 0.46 100 1002.8
20260509052018 53 0.0 2.0 0.00 1.38 0.46 100 1002.8
20260509051017 53 0.0 3.0 0.00 1.38 0.46 100 1002.9
20260509050019 54 0.0 0.0 0.00 1.38 0.46 100 1002.8
20260509045017 54 0.0 4.0 0.00 1.39 0.46 100 1002.9
20260509044018 54 248 1.0 3.0 0.00 1.39 0.46 100 1003.1
20260509043018 55 0.0 3.0 0.00 1.39 0.46 100 1003.0
20260509042018 55 0.0 2.0 0.00 1.39 0.46 100 1002.9
20260509041018 55 0.0 2.0 0.00 1.39 0.46 100 1002.9
20260509040017 56 0.0 2.0 0.01 1.39 0.46 100 1003.1
20260509035017 56 0.0 2.0 0.01 1.39 0.46 100 1003.1
20260509034018 56 0.0 2.0 0.02 1.39 0.46 100 1003.0
20260509033017 56 0.0 2.0 0.02 1.39 0.46 100 1003.0
20260509032017 56 0.0 2.0 0.02 1.39 0.46 100 1002.8
20260509031018 55 0.0 1.0 0.02 1.39 0.46 100 1002.9
20260509030017 55 0.0 1.0 0.01 1.38 0.45 100 1002.8
20260509025017 55 0.0 2.0 0.01 1.38 0.45 100 1003.2
20260509024018 55 0.0 2.0 0.01 1.37 0.44 100 1003.3
20260509023017 55 203 1.0 4.0 0.02 1.37 0.44 100 1003.2
20260509022017 56 180 1.0 4.0 0.02 1.37 0.44 100 1003.2
20260509021017 56 248 1.0 3.0 0.02 1.37 0.44 100 1003.3
20260509020017 56 203 1.0 5.0 0.04 1.37 0.44 100 1003.1
20260509015017 56 0.0 4.0 0.04 1.37 0.44 100 1003.1
20260509014017 55 248 1.0 4.0 0.03 1.37 0.43 100 1003.3
20260509013017 56 0.0 4.0 0.02 1.35 0.42 100 1003.3
20260509012037 55 203 1.0 5.0 0.02 1.35 0.42 100 1003.4
20260509011017 55 180 1.0 5.0 0.02 1.35 0.42 100 1003.3
20260509010017 56 203 2.0 4.0 0.00 1.34 0.40 100 1003.3